| time (UTC) | temp C | wind direction | speed KPH | gust KPH | rain 1hr cm | rain 24hr cm | rain mn cm | humidity % | barometer mb |
| 20260508203047 | 10 | 22 | 12.9 | 27.4 | 0.00 | 0.61 | 0.03 | 74 | 1000.9 |
| 20260508201540 | 9 | 58 | 8.0 | 19.3 | 0.00 | 0.61 | 0.03 | 73 | 1001.2 |
| 20260508200038 | 10 | 71 | 12.9 | 20.9 | 0.00 | 1.55 | 0.03 | 73 | 1001.0 |
| 20260508194537 | 9 | 67 | 9.7 | 16.1 | 0.00 | 1.55 | 0.03 | 75 | 1001.1 |
| 20260508193042 | 10 | 55 | 9.7 | 17.7 | 0.00 | 1.55 | 0.03 | 74 | 1000.7 |
| 20260508191539 | 9 | 83 | 14.5 | 30.6 | 0.00 | 1.55 | 0.03 | 76 | 1000.7 |
| 20260508190042 | 8 | 53 | 12.9 | 30.6 | 0.00 | 2.13 | 0.03 | 79 | 1000.6 |
| 20260508184535 | 8 | 55 | 12.9 | 29.0 | 0.00 | 2.13 | 0.03 | 81 | 1000.7 |
| 20260508183033 | 8 | 45 | 16.1 | 27.4 | 0.00 | 2.13 | 0.03 | 80 | 1000.9 |
| 20260508181532 | 9 | 62 | 11.3 | 19.3 | 0.00 | 2.13 | 0.03 | 80 | 1000.9 |
| 20260508180032 | 9 | 85 | 14.5 | 27.4 | 0.00 | 2.13 | 0.03 | 79 | 1000.8 |
| 20260508174553 | 10 | 67 | 17.7 | 24.1 | 0.00 | 2.13 | 0.03 | 78 | 1000.7 |
| 20260508173032 | 10 | 57 | 11.3 | 22.5 | 0.00 | 2.13 | 0.03 | 78 | 1001.0 |
| 20260508171528 | 10 | 58 | 12.9 | 25.7 | 0.03 | 2.13 | 0.03 | 79 | 1001.3 |
| 20260508170032 | 9 | 73 | 16.1 | 27.4 | 0.03 | 2.13 | 0.03 | 80 | 1001.3 |
| 20260508164526 | 10 | 76 | 11.3 | 22.5 | 0.03 | 2.13 | 0.03 | 80 | 1001.2 |
| 20260508163039 | 8 | 29 | 11.3 | 20.9 | 0.03 | 2.13 | 0.03 | 83 | 1001.2 |
| 20260508161525 | 8 | 49 | 14.5 | 27.4 | 0.00 | 2.11 | 0.00 | 82 | 1001.3 |
| 20260508160026 | 9 | 41 | 14.5 | 22.5 | 0.00 | 2.11 | 0.00 | 81 | 1001.4 |
| 20260508154524 | 10 | 73 | 12.9 | 22.5 | 0.00 | 2.11 | 0.00 | 83 | 1001.2 |
| 20260508153027 | 10 | 54 | 6.4 | 29.0 | 0.00 | 2.11 | 0.00 | 85 | 1001.3 |
| 20260508151528 | 10 | 74 | 9.7 | 25.7 | 0.00 | 2.11 | 0.00 | 86 | 1001.4 |
| 20260508150017 | 10 | 50 | 6.4 | 20.9 | 0.00 | 2.11 | 0.00 | 89 | 1001.7 |
| 20260508144515 | 10 | 61 | 11.3 | 20.9 | 0.00 | 2.11 | 0.00 | 93 | 1001.6 |
| 20260508143014 | 10 | 104 | 8.0 | 19.3 | 0.00 | 2.11 | 0.00 | 94 | 1001.9 |
| 20260508141514 | 9 | 58 | 11.3 | 20.9 | 0.00 | 2.11 | 0.00 | 95 | 1001.9 |
| 20260508140012 | 9 | 72 | 8.0 | 16.1 | 0.00 | 2.11 | 0.00 | 96 | 1002.2 |
| 20260508134509 | 9 | 107 | 6.4 | 12.9 | 0.00 | 2.11 | 0.00 | 98 | 1002.6 |
| 20260508133008 | 8 | 64 | 8.0 | 14.5 | 0.00 | 2.11 | 0.00 | 99 | 1002.4 |
| 20260508131507 | 7 | 58 | 6.4 | 16.1 | 0.00 | 2.11 | 0.00 | 100 | 1002.1 |
| 20260508130006 | 6 | 127 | 6.4 | 11.3 | 0.00 | 2.16 | 0.00 | 99 | 1002.2 |
| 20260508124506 | 6 | 135 | 3.2 | 8.0 | 0.00 | 2.16 | 0.00 | 100 | 1002.0 |
| 20260508123006 | 6 | 160 | 6.4 | 9.7 | 0.00 | 2.16 | 0.00 | 100 | 1002.0 |
| 20260508121506 | 6 | 152 | 3.2 | 6.4 | 0.00 | 2.16 | 0.00 | 100 | 1002.2 |
| 20260508120004 | 5 | 180 | 3.2 | 8.0 | 0.00 | 2.49 | 0.00 | 100 | 1002.3 |
| 20260508114503 | 6 | 93 | 3.2 | 4.8 | 0.00 | 2.49 | 0.00 | 100 | 1002.2 |
| 20260508113003 | 5 | 93 | 1.6 | 4.8 | 0.00 | 2.49 | 0.00 | 100 | 1002.0 |
| 20260508111502 | 5 | 161 | 0.0 | 0.0 | 0.00 | 2.49 | 0.00 | 100 | 1002.4 |
| 20260508110001 | 3 | 161 | 0.0 | 0.0 | 0.00 | 2.51 | 0.00 | 100 | 1002.5 |
| 20260508104605 | 3 | 161 | 0.0 | 0.0 | 0.00 | 2.51 | 0.00 | 100 | 1002.6 |
| 20260508103101 | 3 | 161 | 0.0 | 0.0 | 0.00 | 2.51 | 0.00 | 100 | 1002.5 |
| 20260508101602 | 3 | 162 | 0.0 | 4.8 | 0.00 | 2.51 | 0.00 | 100 | 1002.5 |
| 20260508100058 | 3 | 170 | 0.0 | 1.6 | 0.00 | 2.51 | 0.00 | 100 | 1002.3 |
| 20260508094558 | 2 | 170 | 0.0 | 1.6 | 0.00 | 2.51 | 0.00 | 100 | 1002.3 |
| 20260508093102 | 2 | 262 | 1.6 | 4.8 | 0.00 | 2.51 | 0.00 | 100 | 1002.0 |
| 20260508091556 | 2 | 262 | 0.0 | 0.0 | 0.00 | 2.51 | 0.00 | 100 | 1002.0 |
| 20260508090108 | 3 | 262 | 0.0 | 3.2 | 0.00 | 2.51 | 0.00 | 100 | 1002.0 |
| 20260508084551 | 3 | 262 | 1.6 | 3.2 | 0.00 | 2.51 | 0.00 | 100 | 1001.7 |
| 20260508083050 | 3 | 262 | 0.0 | 4.8 | 0.00 | 2.51 | 0.00 | 100 | 1001.4 |
| 20260508081558 | 3 | 310 | 3.2 | 8.0 | 0.00 | 2.51 | 0.00 | 100 | 1001.6 |
| 20260508080046 | 3 | 60 | 0.0 | 3.2 | 0.00 | 2.51 | 0.00 | 100 | 1001.4 |
| 20260508074645 | 3 | 60 | 0.0 | 3.2 | 0.00 | 2.51 | 0.00 | 100 | 1001.5 |
| 20260508073043 | 3 | 60 | 0.0 | 3.2 | 0.00 | 2.51 | 0.00 | 100 | 1001.5 |
| 20260508071544 | 3 | 60 | 0.0 | 3.2 | 0.00 | 2.51 | 0.00 | 99 | 1001.5 |
| 20260508070039 | 3 | 60 | 0.0 | 6.4 | 0.00 | 2.51 | 0.00 | 99 | 1001.5 |
| 20260508064537 | 4 | 58 | 1.6 | 4.8 | 0.00 | 2.51 | 0.00 | 100 | 1001.3 |
| 20260508063036 | 4 | 58 | 0.0 | 3.2 | 0.00 | 2.51 | 0.00 | 99 | 1001.6 |
| 20260508061534 | 4 | 58 | 1.6 | 11.3 | 0.00 | 2.51 | 0.00 | 99 | 1001.7 |
| 20260508060030 | 5 | 52 | 1.6 | 8.0 | 0.00 | 2.51 | 0.00 | 99 | 1001.6 |
| 20260508054528 | 5 | 51 | 3.2 | 8.0 | 0.00 | 2.51 | 0.00 | 99 | 1001.4 |
| 20260508053026 | 6 | 67 | 1.6 | 16.1 | 0.00 | 2.51 | 0.00 | 99 | 1001.5 |
| 20260508051523 | 6 | 54 | 8.0 | 12.9 | 0.00 | 2.51 | 0.00 | 99 | 1001.3 |
| 20260508050026 | 7 | 41 | 4.8 | 11.3 | 0.00 | 2.51 | 0.00 | 99 | 1001.4 |
| 20260508044521 | 7 | 40 | 6.4 | 14.5 | 0.00 | 2.51 | 0.00 | 100 | 1001.5 |
| 20260508043020 | 7 | 39 | 3.2 | 11.3 | 0.00 | 2.51 | 0.00 | 99 | 1001.5 |
| 20260508041519 | 6 | 67 | 4.8 | 11.3 | 0.00 | 2.51 | 0.00 | 99 | 1001.4 |
| 20260508040019 | 6 | 81 | 8.0 | 16.1 | 0.00 | 2.51 | 0.00 | 99 | 1001.4 |
| 20260508034518 | 7 | 53 | 0.0 | 11.3 | 0.00 | 2.51 | 0.00 | 99 | 1001.6 |
| 20260508033018 | 7 | 45 | 4.8 | 9.7 | 0.00 | 2.51 | 0.00 | 99 | 1001.5 |
| 20260508031508 | 8 | 79 | 11.3 | 14.5 | 0.00 | 2.51 | 0.00 | 99 | 1001.6 |
| 20260508030006 | 8 | 34 | 4.8 | 16.1 | 0.00 | 2.51 | 2.51 | 99 | 1001.5 |
| 20260508024505 | 9 | 5 | 3.2 | 8.0 | 0.00 | 2.51 | 2.51 | 100 | 1001.7 |
| 20260508023008 | 9 | 51 | 4.8 | 12.9 | 0.00 | 2.51 | 2.51 | 100 | 1001.3 |
| 20260508021503 | 8 | 49 | 0.0 | 11.3 | 0.00 | 2.51 | 2.51 | 100 | 1001.4 |
| 20260508020103 | 9 | 24 | 1.6 | 9.7 | 0.00 | 2.51 | 2.51 | 100 | 1001.3 |
| 20260508014505 | 9 | 152 | 4.8 | 11.3 | 0.00 | 2.51 | 2.51 | 100 | 1001.3 |
| 20260508013001 | 9 | 359 | 6.4 | 14.5 | 0.00 | 2.51 | 2.51 | 100 | 1001.0 |
| 20260508011502 | 10 | 129 | 8.0 | 17.7 | 0.00 | 2.51 | 2.51 | 100 | 1000.6 |
| 20260508010059 | 9 | 301 | 4.8 | 14.5 | 0.00 | 2.51 | 2.51 | 100 | 1000.7 |
| 20260508004600 | 8 | 250 | 1.6 | 4.8 | 0.00 | 2.51 | 2.51 | 100 | 1001.1 |
| 20260508003105 | 8 | 249 | 0.0 | 3.2 | 0.00 | 2.51 | 2.51 | 100 | 1001.3 |
| 20260508001556 | 7 | 249 | 0.0 | 3.2 | 0.00 | 2.51 | 2.51 | 100 | 1001.5 |
| 20260508000054 | 7 | 208 | 3.2 | 9.7 | 0.00 | 2.51 | 2.51 | 99 | 1001.5 |
| 20260507234554 | 8 | 212 | 3.2 | 8.0 | 0.00 | 2.51 | 2.51 | 99 | 1001.4 |
| 20260507233054 | 9 | 192 | 3.2 | 16.1 | 0.00 | 2.51 | 2.51 | 100 | 1001.5 |
| 20260507231558 | 9 | 189 | 1.6 | 6.4 | 0.00 | 2.51 | 2.51 | 99 | 1001.5 |
| 20260507230053 | 9 | 191 | 6.4 | 14.5 | 0.00 | 2.51 | 2.51 | 100 | 1001.4 |
| 20260507224600 | 8 | 175 | 8.0 | 14.5 | 0.00 | 2.51 | 2.51 | 99 | 1001.7 |
| 20260507223051 | 8 | 185 | 9.7 | 19.3 | 0.00 | 2.51 | 2.51 | 99 | 1001.5 |
| 20260507221550 | 9 | 200 | 6.4 | 16.1 | 0.00 | 2.51 | 2.51 | 99 | 1001.7 |
| 20260507220049 | 10 | 208 | 9.7 | 17.7 | 0.00 | 2.51 | 2.51 | 99 | 1002.0 |
| 20260507214549 | 10 | 210 | 6.4 | 16.1 | 0.05 | 2.51 | 2.51 | 99 | 1002.0 |
| 20260507213051 | 10 | 231 | 3.2 | 12.9 | 0.20 | 2.51 | 2.51 | 100 | 1001.7 |
| 20260507211551 | 7 | 228 | 1.6 | 6.4 | 0.38 | 2.51 | 2.51 | 99 | 1002.0 |
| 20260507210111 | 7 | 226 | 0.0 | 12.9 | 0.58 | 2.51 | 2.51 | 98 | 1001.7 |
| 20260507204550 | 7 | 175 | 3.2 | 9.7 | 0.76 | 2.49 | 2.49 | 98 | 1002.2 |